Simultaneous Nadir Overpasses (SNOs) Predictions

Prediction of SNOs between NOAA-19 and NPP Satellite Orbit:

Table of predicted SNOs for the next 14.0 days since TLE Epoch: 6/4/2012
Index Date (NOAA-19) Time (NOAA-19) NOAA-19 Lat,Lon Date (NPP) Time (NPP) NPP Lat,Lon Distance(km) Time Diff (sec)
1 06/09/2012 01:54:36 80.62, 104.66 06/09/2012 01:55:47 80.62, 104.50 2.92 71
2 06/09/2012 02:45:39 -80.55, -87.04 06/09/2012 02:46:29 -80.55, -87.18 2.72 50
3 06/09/2012 03:36:38 80.55, 80.23 06/09/2012 03:37:14 80.56, 80.07 3.08 36
4 06/09/2012 04:27:40 -80.46,-111.15 06/09/2012 04:27:55 -80.46,-111.30 2.84 15
5 06/09/2012 05:18:39 80.46, 56.13 06/09/2012 05:18:40 80.47, 55.96 3.22 1
6 06/09/2012 06:09:41 -80.36,-135.29 06/09/2012 06:09:21 -80.37,-135.44 2.92 20
7 06/09/2012 07:00:42 80.41, 31.34 06/09/2012 07:00:07 80.40, 31.51 3.23 35
8 06/09/2012 07:51:41 -80.24,-159.14 06/09/2012 07:50:46 -80.24,-159.29 2.98 55




NCC Satellite Simultaneous Nadir Overpasses (SNOs) Prediction Service
